STARLINK-37310, 68679

Orbit data source: Space-Track

STARLINK-37310, 68679 is a payload satellite owned by SpaceX/Seattle (US) in SSO that was launched on Sat, 11 Apr 2026 UTC via an FALCON 9 launch vehicle from the Air Force Western Test Range (AFWTR). Payload-class satellites include a variety of spacecraft equipped with specific instruments for various scientific and technological missions. These include communications satellites like Starlink; space stations such as the ISS; scientific satellites like the Hubble; Earth observation satellites from companies like Planet Labs, Umbra, and HawkEye 360; GPS; miniature CubeSats for education and research; and military/defense satellites.

Loading next visibility...
Identifier
68679, 2026-077T
Orbit
SSO
Country
Flag of USUS
Related business
Manufacturer
SpaceX/Seattle
Mission
Operational spacecraft
Bus & Motor
STARLINK V2MO, Unknown motor
Mass
575 kg wet, ~530 kg dry
Launch date (UTC)
2026-04-11 (2 months ago)
Launch vehicle
FALCON 9
Launch site
Air Force Western Test Range (AFWTR)
Object type
Payload
Rocket body
Debris
Shape & HBR
Unknown shape, 14.5 m
Radar Cross Section
Large (>1 m²)

Expand to show TLE details & history
Last TLE update: 1 day ago

TLE from 1 day ago
0 STARLINK-37310
1 68679U 26077T   26170.63283023  .00022018  00000-0  68225-3 0  9990
2 68679  97.2858  41.8832 0001863  93.1722 266.9734 15.33448466 10782
Epoch: 2026-06-19T15:11Z
TLE epoch observation values (Epoch: 2026-06-19T15:11:16.531Z)
Latitude
-0.00004°
Longitude
-93.79469°
Altitude
468.712 km
Speed
7.632 km/s
True Right ascension
02h 47m 31s
True Declination
0° 00' 00"
Sunlit
Object was in daylight at epoch
Visualization orbit readout
Latitude
Unknown
Longitude
Unknown
Altitude
Unknown
Speed
Unknown
Apparent Right ascension
Unknown
Apparent Declination
Unknown
Sunlit
N/A
Visualization observer readout
Local Sidereal Time
10:18:43
Azimuth
Unknown
Elevation
Unknown
Doppler factor
Unknown
Orbital elements
Apogee altitude
463.75 km
Perigee altitude
461.201 km
Semi-major axis
6,840.613 km
Eccentricity
0.00019
Inclination
97.2858°
RAAN
41.8832°
Arg. of periapsis
93.1722°
True anomaly
266.95208°
Mean anomaly
266.9734°
Eccentric anomaly
266.96274°
Mean motion
3.83619 °/min
Orbital period
93.84 mins
BSTAR
0.00068225
Loading maneuver chart data...
Computing Atmospheric mass density...
Loading historical data...
Loading historical data...
Loading historical data...
Loading historical data...
Loading historical data...
Loading historical data...
Loading historical data...

Documentation

Showing up to 5 results
|